Date String (YYYY-MM-DD hh:mm:ss) UTC,Instrument flags,Ambient pressure (hPa),Sample flow (lpm),Bypass flow (lpm),Sample temperature (°C),Ambient temperature (°C),ASC tube jacket temperature (°C),LED temperature (°C),Box temperature (°C),Sample RH (%),Span deviation,Mass concentration (μg/m³),Mass concentration (μg/m³),Mass concentration (μg/m³)
DateTimeUTC,F1_M11,P_M11,Q1_M11,Q2_M11,T1_M11,T2_M11,T3_M11,T4_M11,T5_M11,U1_M11,ZSPAN_M11,X0_M11,X2_M11,X1_M11
2022-08-16 11:00:00,,0830.6,5.00,0.00,31.1,29.2,00.0,39.7,32.4,32.8,0000.0,0005.56,0003.86,0003.58
2022-08-16 11:01:00,,0830.6,4.99,0.00,31.1,29.2,00.0,39.7,32.4,32.7,0000.0,0005.68,0003.86,0003.57
2022-08-16 11:02:00,,0830.5,5.00,0.00,31.0,29.2,00.0,39.6,32.4,32.8,0000.0,0006.58,0003.82,0003.54
2022-08-16 11:03:00,,0830.6,5.00,0.00,31.0,29.2,00.0,39.6,32.4,33.0,0000.0,0007.46,0003.80,0003.53
2022-08-16 11:04:00,,0830.5,5.00,0.00,31.0,29.3,00.0,39.6,32.4,32.8,0000.0,0007.45,0003.78,0003.51
2022-08-16 11:05:00,,0830.5,5.00,0.00,31.0,29.3,00.0,39.6,32.4,33.2,0000.0,0007.42,0003.76,0003.48
2022-08-16 11:06:00,,0830.5,5.00,0.00,31.0,29.3,00.0,39.6,32.5,32.9,0000.0,0007.40,0003.74,0003.46
2022-08-16 11:07:00,,0830.5,5.00,0.00,31.0,28.9,00.0,39.6,32.3,32.3,0000.0,0007.66,0003.70,0003.43
2022-08-16 11:08:00,,0830.6,5.01,0.00,30.9,28.3,00.0,39.5,32.1,32.5,0000.0,0007.64,0003.66,0003.40
2022-08-16 11:09:00,,0830.5,4.99,0.00,30.8,27.9,00.0,39.5,32.0,32.1,0000.0,0007.64,0003.65,0003.38
2022-08-16 11:10:00,,0830.5,5.01,0.00,30.7,27.9,00.0,39.5,31.9,32.0,0000.0,0007.58,0003.60,0003.35
2022-08-16 11:11:00,,0830.5,5.00,0.00,30.6,27.9,00.0,39.4,31.9,32.1,0000.0,0007.56,0003.57,0003.32
2022-08-16 11:12:00,,0830.6,5.00,0.00,30.6,28.0,00.0,39.4,31.9,32.4,0000.0,0007.53,0003.54,0003.29
2022-08-16 11:13:00,,0830.5,5.00,0.00,30.5,28.1,00.0,39.3,31.9,32.8,0000.0,0006.87,0003.53,0003.26
2022-08-16 11:14:00,,0830.6,5.01,0.00,30.5,28.3,00.0,39.3,31.9,33.2,0000.0,0005.74,0003.53,0003.23
2022-08-16 11:15:00,,0830.5,5.01,0.00,30.5,28.4,00.0,39.3,31.9,33.3,0000.0,0006.04,0003.52,0003.21
2022-08-16 11:16:00,,0830.5,5.00,0.00,30.5,28.5,00.0,39.3,32.0,34.0,0000.0,0006.28,0003.51,0003.19
2022-08-16 11:17:00,,0830.6,5.00,0.00,30.4,28.6,00.0,39.2,32.0,34.1,0000.0,0006.27,0003.51,0003.19
2022-08-16 11:18:00,,0830.6,5.00,0.00,30.4,28.6,00.0,39.2,32.0,33.3,0000.0,0005.67,0003.48,0003.18
2022-08-16 11:19:00,,0830.6,5.00,0.00,30.4,28.7,00.0,39.2,32.0,32.8,0000.0,0005.45,0003.48,0003.18
2022-08-16 11:20:00,,0830.6,5.00,0.00,30.4,28.8,00.0,39.2,32.0,33.1,0000.0,0005.60,0003.50,0003.18
2022-08-16 11:21:00,,0830.6,5.00,0.00,30.4,28.8,00.0,39.2,32.0,32.9,0000.0,0006.42,0003.55,0003.22
2022-08-16 11:22:00,,0830.5,5.00,0.00,30.4,28.9,00.0,39.2,32.1,33.2,0000.0,0007.10,0003.62,0003.27
2022-08-16 11:23:00,,0830.6,5.01,0.00,30.4,28.9,00.0,39.2,32.1,33.3,0000.0,0007.36,0003.71,0003.34
2022-08-16 11:24:00,,0830.6,4.99,0.00,30.4,29.0,00.0,39.2,32.1,33.5,0000.0,0007.51,0003.79,0003.41
2022-08-16 11:25:00,,0830.6,5.00,0.00,30.4,29.0,00.0,39.2,32.1,33.6,0000.0,0007.50,0003.82,0003.45
2022-08-16 11:26:00,,0830.6,5.00,0.00,30.4,29.0,00.0,39.2,32.1,33.7,0000.0,0007.36,0003.85,0003.50
2022-08-16 11:27:00,,0830.6,5.00,0.00,30.4,29.1,00.0,39.2,32.1,33.6,0000.0,0008.01,0003.91,0003.56
2022-08-16 11:28:00,,0830.5,4.99,0.00,30.5,29.1,00.0,39.2,32.2,33.6,0000.0,0008.49,0003.97,0003.60
2022-08-16 11:29:00,,0830.5,5.00,0.00,30.5,29.2,00.0,39.2,32.2,33.7,0000.0,0008.61,0004.02,0003.63
2022-08-16 11:30:00,,0830.6,5.00,0.00,30.5,29.2,00.0,39.2,32.2,33.2,0000.0,0008.62,0004.05,0003.66
2022-08-16 11:31:00,,0830.5,5.00,0.00,30.5,29.2,00.0,39.2,32.2,33.2,0000.0,0008.64,0004.08,0003.70
2022-08-16 11:32:00,,0830.6,5.01,0.00,30.5,29.2,00.0,39.2,32.2,33.6,0000.0,0008.28,0004.06,0003.68
2022-08-16 11:33:00,,0830.6,5.01,0.00,30.5,29.3,00.0,39.2,32.2,33.7,0000.0,0007.80,0003.99,0003.66
2022-08-16 11:34:00,,0830.6,5.00,0.00,30.5,29.0,00.0,39.2,32.1,33.9,0000.0,0007.58,0003.91,0003.61
2022-08-16 11:35:00,,0830.6,5.00,0.00,30.5,28.3,00.0,39.1,32.0,34.9,0000.0,0007.54,0003.86,0003.57
2022-08-16 11:36:00,,0830.6,4.99,0.00,30.5,27.9,00.0,39.1,31.9,33.7,0000.0,0007.57,0003.85,0003.56
2022-08-16 11:37:00,,0830.6,5.01,0.00,30.4,27.8,00.0,39.1,31.8,33.3,0000.0,0007.58,0003.86,0003.58
2022-08-16 11:38:00,,0830.6,5.00,0.00,30.4,27.9,00.0,39.1,31.8,33.4,0000.0,0006.66,0003.86,0003.58
2022-08-16 11:39:00,,0830.7,5.00,0.00,30.3,28.0,00.0,39.0,31.7,33.6,0000.0,0005.79,0003.88,0003.60
2022-08-16 11:40:00,,0830.6,5.00,0.00,30.3,28.1,00.0,39.0,31.8,34.1,0000.0,0005.74,0003.90,0003.62
2022-08-16 11:41:00,,0830.6,5.00,0.00,30.3,28.2,00.0,39.0,31.8,33.6,0000.0,0005.90,0003.94,0003.64
2022-08-16 11:42:00,,0830.6,5.00,0.00,30.3,28.3,00.0,39.0,31.9,33.6,0000.0,0006.37,0003.99,0003.66
2022-08-16 11:43:00,,0830.6,5.00,0.00,30.3,28.4,00.0,39.0,31.9,33.7,0000.0,0006.96,0004.08,0003.72
2022-08-16 11:44:00,,0830.6,5.01,0.00,30.3,28.5,00.0,39.0,31.9,33.8,0000.0,0007.19,0004.16,0003.78
2022-08-16 11:45:00,,0830.6,4.99,0.00,30.3,28.6,00.0,39.0,31.9,33.8,0000.0,0007.39,0004.24,0003.84
2022-08-16 11:46:00,,0830.6,5.00,0.00,30.3,28.7,00.0,39.0,31.9,33.7,0000.0,0007.41,0004.29,0003.90
2022-08-16 11:47:00,,0830.6,5.00,0.00,30.3,28.8,00.0,39.0,32.0,33.8,0000.0,0007.47,0004.34,0003.93
2022-08-16 11:48:00,,0830.7,5.00,0.00,30.3,28.8,00.0,39.0,32.0,34.2,0000.0,0007.52,0004.36,0003.94
2022-08-16 11:49:00,,0830.7,5.00,0.00,30.3,28.9,00.0,39.0,32.0,34.4,0000.0,0007.45,0004.34,0003.94
2022-08-16 11:50:00,,0830.7,5.00,0.00,30.3,28.9,00.0,39.0,32.0,33.8,0000.0,0007.43,0004.33,0003.93
2022-08-16 11:51:00,,0830.7,5.00,0.00,30.3,29.0,00.0,39.0,32.0,33.7,0000.0,0007.50,0004.38,0003.97
2022-08-16 11:52:00,,0830.8,4.99,0.00,30.3,29.0,00.0,39.0,32.0,33.8,0000.0,0007.64,0004.43,0004.01
2022-08-16 11:53:00,,0830.8,5.00,0.00,30.4,29.1,00.0,39.0,32.1,33.8,0000.0,0007.47,0004.44,0004.02
2022-08-16 11:54:00,,0830.8,5.00,0.00,30.4,29.1,00.0,39.1,32.1,33.7,0000.0,0007.46,0004.43,0004.02
2022-08-16 11:55:00,,0830.8,5.00,0.00,30.4,29.1,00.0,39.1,32.1,33.7,0000.0,0007.45,0004.42,0004.01
2022-08-16 11:56:00,,0830.8,5.01,0.00,30.4,29.2,00.0,39.1,32.1,33.7,0000.0,0007.81,0004.45,0004.01
2022-08-16 11:57:00,,0830.8,5.00,0.00,30.4,29.2,00.0,39.1,32.1,33.6,0000.0,0007.99,0004.50,0004.02
2022-08-16 11:58:00,,0830.7,4.99,0.00,30.4,29.2,00.0,39.1,32.1,33.6,0000.0,0008.11,0004.53,0004.04
2022-08-16 11:59:00,,0830.8,5.01,0.00,30.4,29.0,00.0,39.1,32.1,33.9,0000.0,0008.22,0004.55,0004.06
